loading
|

THOR ABLESTAR DEB, 657

Orbit data source: Space-Track

THOR ABLESTAR DEB, 657 is space debris in LEO originally from a launch on Thu, 29 Jun 1961 UTC launched from the Air Force Eastern Test Range (AFETR). Debris objects in space refer to the collection of defunct objects orbiting the Earth. Examples of debris include non-operational satellites, rocket bodies, and fragments generated from explosions, collisions, or faulty payload assembly.

Loading next visibility...
Loading greatness...
THOR ABLESTAR DEB details
Identifier
657, 1961-015HJ
Orbit
LEO
Last TLE update1 day ago
Origin
Flag of USUSAF SSD (US)
ManufacturerUnknown
Mission statusUnknown
MissionUnknown
Bus & MotorUnknown
MassUnknown
Launch date (UTC)
1961-06-29 (63 years ago)
Launch vehicleUnknown
Launch site
Air Force Eastern Test Range (AFETR)
Object type
Payload
Rocket body
Debris
Radar Cross SectionSmall (<0.1 m²)

Expand to show TLE details & history

TLE from 1 day ago
0 THOR ABLESTAR DEB
1 00657U 61015HJ  24250.63459806  .00000442  00000-0  10883-2 0  9997
2 00657  66.2097 335.6218 0332021 355.7564  70.1833 13.11395533 19561
Epoch: 2024-09-06T15:13Z
Definitive object data (Epoch: 2024-09-06T15:13:49.272Z)
Latitude59.14695°
Longitude168.20289°
Altitude1,148.938 km
Speed7.322 km/s
True Right ascension01h 31m 27s
True Declination59° 00' 12"
Sunlit
Object was in daylight at TLE epoch
Predictive object data (real-time)
Latitude65.96333°
Longitude-141.12423°
Altitude1,259.83 km
Speed7.217 km/s
Apparent Right ascension01h 06m 24s
Apparent Declination26° 14' 49"
Sunlit
Object is in daylight
Predictive observer data (real-time)
Local Sidereal Time10:57:27
Azimuth329.917° NNW
Elevation-17.342°
Doppler factor1
Orbital elements
Apogee1,468.435 km
Perigee964.133 km
Semi-major axis7,594.421 km
Eccentricity0.0332021
Inclination66.2097°
RAAN335.6218°
Arg. of periapsis355.7564°
True anomaly73.8113°
Mean anomaly70.1833°
Eccentric anomaly71.99246°
Mean motion3.27945 °/min
BSTAR0.0010883
Period109.77 mins
No data available

THOR ABLESTAR DEB Visibility forecast

Observer location: 39.9160978°, -105.1181434

THOR ABLESTAR DEB is not visible in the next 10 days
Span
Click to sort rows by Start time (UTC) header in descending order
Start Az.
Max El. time (UTC)
Max El. Az.
Max El.
End time (UTC)
End Az.